GFSFLT1_850_spd_093.txt.gz
Wind_Speed
14 20 21 21 21 19 19 18 17 15 14 14 14 14 14 13 14 14 14 15 15 15 14 14 13 13 12 9 7 6 6 4 4
20 21 21 20 20 18 17 16 15 13 12 11 11 11 11 11 11 12 12 13 13 13 13 12 12 12 11 9 8 8 6 4 3
22 22 20 19 18 16 14 12 11 10 9 8 8 8 8 8 9 10 11 11 12 12 11 11 11 11 11 10 9 9 8 8 8
22 21 20 18 17 15 12 10 8 7 5 5 5 6 6 6 7 8 9 9 10 10 10 10 10 10 10 10 10 9 9 9 9
22 21 18 16 14 12 10 7 4 3 2 2 3 3 4 5 4 5 6 7 8 8 8 9 9 9 9 9 9 8 8 8 9
19 17 16 14 13 11 9 7 5 3 1 0 0 1 2 3 2 3 3 5 6 7 7 7 8 8 9 9 8 8 8 8 8
17 17 15 14 12 11 9 7 6 4 4 2 1 1 1 2 1 1 2 3 4 6 7 7 8 9 9 9 8 8 7 7 7
17 16 14 13 11 10 9 8 7 6 5 4 3 2 2 2 1 1 1 2 4 6 7 8 10 11 11 11 10 9 8 8 8
15 14 12 12 11 10 9 8 8 7 5 4 3 3 3 3 3 3 3 3 5 7 8 10 12 13 12 12 11 9 9 9 9
13 12 10 11 10 9 9 9 8 7 6 4 4 4 4 4 4 3 4 5 7 8 10 10 13 15 12 12 12 11 12 12 11
12 10 10 9 9 9 9 9 8 7 6 4 4 5 5 4 4 5 6 8 9 10 12 12 12 13 12 13 13 11 13 12 12
12 11 9 10 10 9 9 8 8 7 6 5 5 5 5 6 8 7 10 10 11 14 14 15 13 14 12 14 13 13 14 15 14
13 12 11 11 11 10 9 8 8 7 7 6 5 5 8 9 10 12 13 15 16 15 18 16 13 12 12 14 12 13 14 14 15
14 13 12 12 12 11 10 9 8 7 7 7 8 10 11 12 15 17 20 21 21 20 17 16 12 12 10 13 11 11 15 15 17
13 12 14 14 14 12 10 8 7 7 9 12 13 13 14 17 20 22 20 19 19 17 16 16 15 13 14 13 14 16 15 13 15
18 15 16 17 14 11 9 8 8 9 10 15 15 17 20 14 16 10 14 10 10 13 13 11 13 13 14 13 11 16 14 14 16
26 18 17 17 15 14 9 8 9 12 13 16 18 12 13 6 5 17 11 10 14 14 9 9 11 13 14 13 14 14 14 15 19
27 23 22 22 21 14 13 12 14 14 14 16 15 7 5 12 15 8 12 14 10 10 10 9 11 13 15 15 13 16 15 16 19
24 21 23 24 16 12 9 9 15 18 18 17 15 15 17 7 8 9 8 10 14 10 11 13 14 15 17 17 16 16 16 15 14
37 23 21 21 17 18 18 11 12 19 17 16 16 15 14 15 16 14 17 13 13 16 12 15 17 19 19 19 18 16 17 13 14

GFSFLT1_850_spd_096.txt.gz
Wind_Speed
18 22 22 22 20 19 20 18 16 15 14 14 14 13 12 12 11 11 12 11 11 12 11 11 10 9 8 7 4 3 2 2 3
23 23 23 22 20 20 18 16 15 13 12 11 10 10 10 10 9 9 9 10 10 10 10 10 10 9 8 7 6 5 5 4 4
24 24 23 22 20 19 17 15 12 11 9 8 8 7 7 8 7 8 7 8 9 9 9 9 9 9 8 7 7 6 6 6 5
25 23 22 21 19 17 15 12 10 8 7 6 5 5 5 5 4 6 5 6 7 7 8 8 8 8 9 8 8 8 8 8 8
24 23 21 20 17 15 12 10 8 6 4 4 3 3 3 2 2 3 3 4 5 6 6 7 7 8 8 8 8 8 8 8 8
22 21 19 17 15 13 11 9 7 5 4 3 2 2 1 0 1 1 0 1 3 4 5 6 6 7 7 8 8 8 7 7 7
19 20 18 16 15 13 10 8 6 4 3 2 2 2 2 1 1 2 2 1 2 2 3 5 6 8 8 8 8 7 7 7 7
20 19 17 15 14 12 10 9 8 7 6 4 4 4 2 2 2 3 3 3 4 4 4 5 7 10 8 8 7 7 8 8 8
18 15 15 14 14 12 11 10 9 8 7 5 4 4 4 3 4 5 5 5 5 5 6 7 8 10 12 10 8 7 5 7 8
17 16 14 14 13 12 12 10 10 9 8 6 5 5 5 5 5 5 6 6 7 9 10 11 11 13 14 11 10 10 9 10 11
16 15 12 12 13 13 11 11 10 8 7 6 5 5 5 5 6 6 8 10 10 10 11 12 12 14 13 14 11 10 10 11 11
14 12 11 11 11 11 11 11 11 10 9 7 7 6 6 6 8 9 9 11 13 13 16 15 15 17 14 15 13 9 10 11 12
13 13 11 11 12 12 12 11 11 9 8 6 6 6 6 8 9 11 10 12 14 16 18 18 17 16 15 14 12 10 11 13 14
15 13 13 13 13 14 13 12 10 8 7 6 6 7 8 8 10 11 14 16 22 18 19 21 18 15 14 14 13 12 11 16 15
17 15 16 15 16 16 14 12 11 8 8 8 8 8 9 10 10 13 15 15 16 13 13 14 11 15 14 14 15 14 13 14 16
18 18 17 18 19 16 14 13 11 9 8 6 7 8 11 11 12 13 10 16 10 11 14 15 8 13 15 17 16 13 15 15 17
23 22 21 20 20 19 16 14 10 8 8 6 7 6 8 7 6 9 13 10 12 14 12 10 10 12 15 15 17 14 13 16 17
18 21 30 24 23 22 22 18 15 10 7 9 5 6 4 8 8 11 11 10 13 11 12 11 11 13 14 16 17 14 16 17 17
20 21 20 19 28 24 20 13 8 9 7 9 11 12 12 7 8 6 9 10 13 15 12 14 15 16 16 16 17 17 18 16 16
18 22 21 23 26 22 16 13 11 9 6 9 12 11 11 13 10 12 8 10 14 15 16 15 15 18 20 19 18 20 20 16 17

GFSFLT1_850_spd_102.txt.gz
Wind_Speed
18 20 23 21 20 20 18 18 17 16 15 15 14 14 14 13 9 8 10 10 11 11 10 9 9 8 8 8 9 9 9 10 10
20 23 22 21 20 19 18 17 15 14 14 13 12 12 13 12 5 8 9 9 10 10 10 10 9 9 9 9 10 10 10 11 11
23 24 22 19 22 19 17 15 13 12 11 11 11 11 13 8 4 8 7 7 9 9 9 9 9 8 9 10 10 10 10 11 11
23 23 21 18 21 18 16 13 11 10 9 9 9 9 11 5 7 4 6 6 7 7 7 8 8 8 9 9 10 10 10 10 10
24 23 20 17 19 17 15 12 10 8 7 6 7 8 7 4 5 1 3 3 4 5 6 6 8 8 9 10 11 10 10 9 10
24 24 21 18 18 17 14 11 8 5 4 4 4 5 7 4 1 4 3 2 3 4 5 6 7 9 10 9 11 10 9 10 10
25 24 22 18 17 17 13 9 6 4 4 2 3 4 3 3 3 5 4 3 2 3 4 5 7 8 9 9 9 10 10 10 10
23 25 23 21 18 15 11 8 6 4 2 2 2 1 5 3 5 4 5 4 3 3 3 4 5 7 8 7 8 7 9 9 10
24 22 22 17 15 13 10 8 7 5 8 7 6 6 2 4 4 5 8 7 5 5 5 5 7 9 10 8 8 8 7 8 8
19 19 19 17 13 10 7 6 7 8 5 7 6 4 3 3 3 8 8 11 10 9 7 5 6 9 10 10 9 8 7 7 8
18 16 17 15 15 16 13 10 8 5 6 6 2 1 4 8 7 6 8 9 11 13 9 8 9 12 12 12 10 8 4 4 8
26 23 21 19 16 14 12 10 7 7 5 6 9 7 6 6 4 6 8 10 12 10 9 11 10 10 14 13 12 8 5 5 7
24 21 18 15 13 12 11 12 12 13 12 9 6 4 6 4 5 6 7 8 10 16 17 16 14 13 14 12 13 9 6 6 6
21 19 16 14 12 12 11 10 12 10 10 12 8 10 8 6 7 7 8 14 18 17 16 12 11 9 9 12 13 10 10 8 8
20 19 15 13 13 12 11 11 12 12 8 10 12 12 10 11 11 12 13 16 12 11 7 9 10 10 7 9 13 11 11 10 10
21 19 17 14 12 10 10 9 12 11 12 13 13 9 10 11 13 14 13 10 11 9 8 10 10 12 8 10 14 14 13 11 12
16 18 16 15 15 14 12 13 13 15 15 15 11 11 10 15 13 10 9 9 9 11 10 9 13 11 7 8 11 15 14 13 13
18 18 17 17 16 14 17 17 19 19 19 17 11 7 5 8 6 10 9 9 9 12 11 11 13 11 8 9 13 15 15 17 15
16 19 16 17 16 16 18 20 23 22 18 17 16 10 10 5 5 9 9 12 12 13 14 15 14 15 13 13 13 16 18 15 15
15 17 16 17 16 17 20 20 25 26 21 25 18 17 15 11 12 13 8 13 13 14 17 15 18 19 16 13 13 15 17 16 14

GFSFLT1_850_spd_108.txt.gz
Wind_Speed
20 21 16 15 16 18 18 18 17 17 16 13 10 9 10 10 9 9 10 9 10 9 9 9 9 9 9 8 9 9 10 10 10
21 20 18 16 18 18 18 18 17 17 15 13 10 10 11 9 9 8 8 9 9 9 9 8 8 8 8 8 9 9 9 9 9
21 20 20 18 19 19 19 18 17 16 14 11 8 8 8 9 8 8 7 7 7 7 7 7 7 7 7 8 8 8 9 8 9
21 21 21 21 21 20 18 17 16 15 13 11 8 6 7 7 7 7 6 6 6 5 5 6 7 7 8 9 8 8 8 8 8
23 23 22 23 23 20 18 16 14 13 12 10 8 6 4 6 5 5 4 4 3 4 4 5 6 7 7 7 8 8 8 8 8
26 24 27 26 24 21 18 15 14 12 12 11 9 7 4 4 4 3 3 2 2 2 3 4 5 5 5 6 7 7 6 7 9
28 25 23 27 25 21 18 15 13 12 11 11 11 8 5 3 2 1 2 2 3 3 3 3 4 4 5 6 7 6 7 8 8
26 25 24 24 25 22 19 16 13 12 11 11 12 9 7 5 3 1 1 3 3 3 4 5 5 6 5 5 6 7 8 7 7
29 30 28 27 28 25 20 16 13 13 12 11 11 9 8 7 4 2 2 2 3 4 5 6 7 8 8 8 7 8 8 6 4
31 32 29 28 27 25 21 17 15 13 11 12 10 8 8 7 5 2 2 3 3 7 5 3 5 9 10 9 10 10 8 6 4
29 35 33 31 27 24 21 18 15 13 11 12 10 9 10 9 7 5 3 5 7 7 8 6 6 10 12 11 11 11 9 7 7
34 36 36 31 25 24 21 19 17 15 12 12 12 12 11 9 6 5 8 8 10 10 11 11 13 15 15 14 13 12 10 9 8
31 32 32 27 26 25 22 20 18 15 15 13 14 13 11 10 10 11 11 11 14 13 13 16 18 17 15 12 11 12 10 10 11
25 28 30 29 28 26 23 20 18 18 17 16 15 14 11 12 13 12 15 13 16 16 16 20 16 12 11 10 8 13 11 11 11
32 31 28 30 29 26 23 22 21 20 18 17 16 16 15 16 17 16 16 16 18 19 21 16 11 10 9 8 7 14 12 12 12
26 29 29 28 27 26 24 23 22 21 17 18 18 17 17 18 19 20 20 20 20 18 16 13 11 9 9 9 10 14 12 13 16
31 33 31 29 28 26 24 25 23 21 20 20 20 20 21 21 21 23 21 19 19 15 11 10 10 10 11 9 10 14 15 16 15
32 33 32 30 27 26 25 24 24 24 23 25 21 10 13 21 25 24 22 19 17 14 9 8 12 12 12 10 11 14 17 17 16
33 31 30 30 28 25 23 24 25 25 24 25 29 28 16 12 12 25 24 20 18 15 11 14 15 15 15 14 14 15 17 16 16
31 30 29 28 27 27 24 24 22 22 22 27 27 27 29 26 21 22 25 22 17 17 15 19 17 18 16 14 14 15 16 17 16

GFSFLT1_850_spd_111.txt.gz
Wind_Speed
19 18 13 13 13 15 18 17 16 14 11 10 10 10 10 9 9 8 8 7 8 8 8 8 8 7 8 9 9 10 9 9 9
21 18 14 14 16 17 17 16 14 12 9 8 8 9 9 9 8 8 7 8 7 7 7 7 6 8 8 8 8 8 8 9 9
20 18 15 16 18 17 17 16 14 13 10 8 8 7 7 8 8 7 6 6 6 5 5 5 6 7 7 8 8 8 8 9 9
20 18 17 17 19 18 17 16 15 13 10 8 7 7 6 7 7 6 5 4 4 4 4 5 6 6 7 7 7 7 7 9 9
21 18 18 18 19 19 18 16 15 13 10 8 6 5 5 5 5 4 3 2 2 2 3 3 5 6 6 5 6 7 7 8 8
22 21 20 19 21 20 19 17 14 13 11 10 7 6 4 4 3 3 1 1 1 2 2 3 3 4 5 5 6 6 7 8 8
24 23 21 22 23 21 19 17 15 14 12 11 10 7 6 4 3 2 0 1 2 2 3 3 4 4 5 5 6 6 8 9 9
27 25 24 26 28 24 21 18 16 15 13 13 12 10 8 6 4 2 1 1 2 3 4 5 6 6 6 6 8 8 9 9 7
29 28 28 29 29 26 23 20 17 15 14 14 14 12 10 8 6 4 2 2 2 2 5 5 7 7 8 8 9 10 10 9 7
31 30 30 30 30 27 25 21 18 16 15 14 14 13 11 11 9 7 3 4 4 4 6 5 6 8 10 11 10 11 10 9 8
35 31 32 31 31 29 26 23 19 16 15 15 15 13 13 11 10 8 7 5 6 8 9 8 8 9 12 13 11 11 10 10 9
40 34 33 34 33 30 27 24 21 19 18 16 16 15 15 13 12 9 9 10 10 11 13 14 13 15 16 13 13 13 11 11 10
42 38 34 35 33 30 29 25 23 21 19 16 15 15 15 15 14 14 15 12 14 15 16 15 17 19 17 13 12 11 12 11 10
47 40 34 35 34 30 29 26 24 22 21 18 16 17 17 16 16 17 15 16 16 17 17 17 20 19 13 11 10 10 14 11 10
32 27 30 32 33 30 29 28 24 23 19 16 18 17 18 19 19 19 18 18 18 19 19 20 19 15 12 10 9 12 16 12 12
23 24 27 29 32 31 30 26 24 24 20 19 20 20 20 22 23 22 20 20 21 21 22 21 17 13 11 10 8 13 12 13 14
27 31 31 31 34 33 30 29 26 24 23 21 19 19 23 26 23 23 22 23 23 22 20 19 15 11 10 11 9 11 16 17 17
29 26 29 36 33 33 31 28 28 29 24 24 19 11 13 19 28 27 26 26 25 22 21 18 14 11 13 12 11 13 17 20 19
31 33 29 28 31 29 28 28 29 27 25 24 27 27 18 9 9 21 29 29 28 26 23 20 18 16 15 15 13 15 18 19 19
29 25 26 30 32 32 30 30 29 27 26 26 25 25 29 30 23 20 22 27 30 28 25 22 20 19 17 17 16 16 17 18 18